Observations

BIA Manual Entry


Date Temp Humidity Rainfall Dew Point Wind Direction Wind Speed Wind Pressure Condition Visibility
2025-04-14 12:57:19 31 70 0.0 25 250 13.3 1010 Partly Cloudy (Day) 20 KM
2025-04-14 10:59:57 30 73 0.0 24 230 15.2 1011 Partly Cloudy (Day) 20 KM
2025-04-14 09:59:33 29 79 25 230 9.5 1011 Partly Cloudy (Day) 20 KM
2025-04-14 08:59:45 28 84 24 220 17.1 1212 Partly Cloudy (Day) 20 KM
2025-04-14 07:57:51 26 88 24 190 15.2 1011 Partly Cloudy (Day) 15 KM
2025-04-14 06:59:57 25 94 24 210 9.5 1010 Cloudy 15 KM
2025-04-14 06:00:52 25 94 24 200 7.6 1010 Partly Cloudy (Night) 10 KM
2025-04-14 04:57:47 25 95 24 200 11.4 1008 Partly Cloudy (Night) 10 KM
2025-04-14 04:00:06 25 95 24 200 7.6 1008 Mist 10 KM
2025-04-14 02:57:33 25 96 24 210 3.8 1009 Mist 10 KM
2025-04-14 01:57:33 25 96 24 190 9.5 1009 Partly Cloudy (Night) 10 KM
2025-04-14 00:58:37 25 96 25 190 11.4 1010 Partly Cloudy (Night) 10 KM
2025-04-13 23:58:37 25 98 25 180 3.8 1010 Partly Cloudy (Night) 10 KM
2025-04-13 22:59:17 25 98 25 190 7.6 1011 Rain 10 KM
2025-04-13 21:59:59 25 98 25 160 5.7 1011 Rain 09 KM
2025-04-13 21:01:16 26 96 25 200 7.6 1010 Thundershowers 9 KM
2025-04-13 20:00:38 26 98 26 140 15.2 1009 Thundershowers 6 KM
2025-04-13 19:03:12 28 91 26 010 7.6 1008 Showers 9 KM
2025-04-13 18:01:18 29 84 26 360 7.6 1007 Thundershowers 9 KM
2025-04-13 16:57:41 30 79 26 360 11.4 1008 Thunderstorm 15 KM
2025-04-13 16:05:15 30 74 25 340 17.1 1007 Thunderstorm 15 KM
2025-04-13 15:58:19 30 74 25 340 17.1 1007 Distant showers 15 KM
2025-04-13 14:59:07 32 69 25 350 19.0 1007 Distant showers 15 KM
2025-04-13 14:58:24 32 69 25 350 19.0 1007 Partly Cloudy (Day) 15 KM
2025-04-13 13:58:32 32 65 0.00 25 350 15.2 1008 Partly Cloudy (Day) 20 KM